FW0886 Weather Reports


time (UTC)temp
C
wind
direction
speed
KPH
gust
KPH
rain 1hr
cm
rain 24hr
cm
rain mn
cm
humidity
%
barometer
mb
20260505053316 18 45 8.0 24.1 0.00 0.00 0.00 41 1005.4
20260505052316 18 23 1.6 8.0 0.00 0.00 0.00 43 1005.1
20260505051317 19 68 4.8 11.3 0.00 0.00 0.00 42 1005.0
20260505050337 19 68 3.2 11.3 0.00 0.00 0.00 43 1005.0
20260505041336 21 68 3.2 4.8 0.00 0.00 0.00 39 1004.0
20260505040316 21 0.0 1.6 0.00 0.00 0.00 42 1003.7
20260505035316 21 45 3.2 6.4 0.00 0.00 0.00 43 1003.6
20260505034316 20 0.0 1.6 0.00 0.00 0.00 56 1003.2
20260505033336 19 0.0 1.6 0.00 0.00 0.00 69 1003.3
20260505032356 19 0.0 1.6 0.00 0.00 0.00 74 1002.9
20260505031316 19 0.0 0.0 0.00 0.00 0.00 73 1002.3
20260505030315 19 0.0 0.0 0.00 0.00 0.00 71 1002.2
20260505025316 20 0.0 0.0 0.00 0.00 0.00 69 1002.2
20260505024335 20 0.0 0.0 0.00 0.00 0.00 68 1002.2
20260505023316 20 0.0 0.0 0.00 0.00 0.00 68 1002.0
20260505022316 20 0.0 0.0 0.00 0.00 0.00 67 1001.8
20260505021315 20 0.0 0.0 0.00 0.00 0.00 67 1001.5
20260505020315 20 0.0 0.0 0.00 0.00 0.00 66 1001.4
20260505015315 21 0.0 0.0 0.00 0.00 0.00 65 1001.3
20260505014315 21 0.0 0.0 0.00 0.00 0.00 64 1001.2
20260505013316 21 0.0 1.6 0.00 0.00 0.00 61 1001.1
20260505012316 22 0.0 0.0 0.00 0.00 0.00 59 1001.0
20260505011315 23 0.0 0.0 0.00 0.00 0.00 57 1001.0
20260505010315 23 0.0 0.0 0.00 0.00 0.00 55 1000.9
20260505005316 24 0.0 0.0 0.00 0.00 0.00 52 1000.8
20260505004356 25 0.0 0.0 0.00 0.00 0.00 52 1000.7
20260505003315 25 0.0 1.6 0.00 0.00 0.00 50 1000.7
20260505002315 26 0.0 0.0 0.00 0.00 0.00 49 1000.6
20260505001315 26 0.0 1.6 0.00 0.00 0.00 48 1000.5
20260505000315 26 158 1.6 3.2 0.00 0.00 0.00 48 1000.7
20260504235315 26 203 1.6 4.8 0.00 0.00 0.00 47 1000.6
20260504234317 26 0.0 1.6 0.00 0.00 0.00 48 1000.5
20260504233317 26 225 1.6 3.2 0.00 0.00 0.00 46 1000.5
20260504232317 27 135 3.2 8.0 0.00 0.00 0.00 46 1000.4
20260504231317 27 180 3.2 9.7 0.00 0.00 0.00 45 1000.4
20260504230337 27 248 4.8 8.0 0.00 0.00 0.00 45 1000.4
20260504225317 28 113 6.4 14.5 0.00 0.00 0.00 44 1000.5
20260504224317 28 248 3.2 8.0 0.00 0.00 0.00 45 1000.4
20260504223317 28 225 4.8 12.9 0.00 0.00 0.00 43 1000.4
20260504222317 28 135 1.6 6.4 0.00 0.00 0.00 42 1000.5
20260504221317 29 135 8.0 12.9 0.00 0.00 0.00 39 1000.6
20260504220317 28 225 1.6 3.2 0.00 0.00 0.00 37 1000.5
20260504215317 29 113 6.4 9.7 0.00 0.00 0.00 34 1000.6
20260504214357 29 0.0 3.2 0.00 0.00 0.00 38 1000.7
20260504213337 29 68 3.2 6.4 0.00 0.00 0.00 37 1000.8
20260504212337 29 113 1.6 3.2 0.00 0.00 0.00 36 1000.7
20260504211335 29 135 3.2 4.8 0.00 0.00 0.00 37 1000.7
20260504210317 29 225 1.6 4.8 0.00 0.00 0.00 37 1000.8
20260504205337 29 158 1.6 3.2 0.00 0.00 0.00 40 1000.9
20260504204317 29 23 1.6 3.2 0.00 0.00 0.00 43 1001.1
20260504203337 28 135 4.8 6.4 0.00 0.00 0.00 42 1001.2
20260504202317 28 135 8.0 17.7 0.00 0.00 0.00 39 1001.4
20260504201317 29 135 6.4 9.7 0.00 0.00 0.00 39 1001.4
20260504200317 28 135 1.6 4.8 0.00 0.00 0.00 40 1001.5
20260504195317 28 135 4.8 9.7 0.00 0.00 0.00 43 1001.6
20260504194317 28 225 3.2 6.4 0.00 0.00 0.00 44 1001.7
20260504193317 28 0.0 1.6 0.00 0.00 0.00 44 1001.6
20260504192317 27 113 6.4 11.3 0.00 0.00 0.00 41 1001.8
20260504191317 28 158 8.0 16.1 0.00 0.00 0.00 43 1001.8
20260504190317 27 203 4.8 8.0 0.00 0.00 0.00 44 1001.8
20260504185316 27 180 3.2 6.4 0.00 0.00 0.00 44 1001.7
20260504184316 27 225 4.8 9.7 0.00 0.00 0.00 44 1001.9
20260504183357 27 225 6.4 9.7 0.00 0.00 0.00 42 1001.9
20260504182317 27 23 3.2 11.3 0.00 0.00 0.00 44 1002.2
20260504181317 27 225 6.4 9.7 0.00 0.00 0.00 43 1002.1
20260504180317 27 135 4.8 8.0 0.00 0.00 0.00 45 1002.3
20260504175316 26 158 1.6 4.8 0.00 0.00 0.00 47 1002.3
20260504174336 26 203 1.6 4.8 0.00 0.00 0.00 46 1002.4
20260504173316 26 135 6.4 11.3 0.00 0.00 0.00 45 1002.6
20260504172316 26 225 3.2 12.9 0.00 0.00 0.00 45 1002.5
20260504171316 26 225 3.2 6.4 0.00 0.00 0.00 47 1002.6
20260504170316 26 203 6.4 11.3 0.00 0.00 0.00 46 1002.6
20260504160316 24 203 9.7 14.5 0.00 0.00 0.00 48 1002.7
20260504150316 22 225 6.4 12.9 0.00 0.00 0.00 52 1002.5
20260504140316 20 225 4.8 11.3 0.00 0.00 0.00 56 1002.7
20260504130316 18 0.0 3.2 0.00 0.00 0.00 59 1003.0
20260504120316 16 0.0 0.0 0.00 0.00 0.00 63 1003.1
20260504110316 12 0.0 1.6 0.00 0.00 0.00 80 1003.1
20260504100316 12 0.0 0.0 0.00 0.00 0.00 84 1004.3
20260504081315 14 0.0 0.0 0.00 0.00 0.00 75 1004.9
20260504080317 14 0.0 0.0 0.00 0.00 0.00 73 1005.0
20260504070317 17 0.0 0.0 0.00 0.00 0.00 62 1005.8